DW6794 Weather Reports


Display with metric or nautical units.
time (UTC)temp
F
wind
direction
speed
MPH
gust
MPH
rain 1hr
in
rain 24hr
in
rain mn
in
humidity
%
barometer
mb
20170326062428 61 141 1.0 5.0 0.00 0.00 0.00 58 1014.8
20170326061428 62 141 0.0 6.0 0.00 0.00 0.00 58 1015.0
20170326050427 62 14 2.0 7.0 0.00 0.00 0.00 56 1015.3
20170326041427 64 41 1.0 12.0 0.00 0.00 0.00 54 1015.6
20170326033428 65 13 4.0 8.0 0.00 0.00 0.00 51 1015.9
20170326031428 65 158 5.0 9.0 0.00 0.00 0.00 50 1016.0
20170326024428 66 124 5.0 12.0 0.00 0.00 0.00 50 1016.0
20170326012429 66 174 2.0 7.0 0.00 0.00 0.00 47 1016.5
20170326010429 67 161 3.0 12.0 0.00 0.00 0.00 46 1016.1
20170326004429 67 186 6.0 10.0 0.00 0.00 0.00 46 1016.0
20170325232429 70 175 3.0 13.0 0.00 0.00 0.00 45 1015.4
20170325231429 71 150 6.0 12.0 0.00 0.00 0.00 44 1015.4
20170325230429 71 159 6.0 10.0 0.00 0.00 0.00 44 1015.4
20170325212431 74 159 3.0 9.0 0.00 0.00 0.00 43 1015.5
20170325205429 73 183 3.0 10.0 0.00 0.00 0.00 44 1015.9
20170325204429 74 223 3.0 9.0 0.00 0.00 0.00 43 1015.9
20170325193429 74 219 3.0 12.0 0.00 0.00 0.00 47 1016.5
20170325183429 73 257 6.0 12.0 0.00 0.00 0.00 50 1017.2
20170325181430 73 214 4.0 10.0 0.00 0.00 0.00 51 1017.8
20170325174430 72 318 2.0 7.0 0.00 0.00 0.00 54 1018.4
20170325173430 71 279 5.0 7.0 0.00 0.00 0.00 54 1018.6
20170325172429 71 195 2.0 7.0 0.00 0.00 0.00 55 1018.7
20170325171429 71 265 3.0 9.0 0.00 0.00 0.00 56 1019.0
20170325170429 70 183 2.0 6.0 0.00 0.00 0.00 58 1019.1
20170325164429 69 266 5.0 12.0 0.00 0.00 0.00 59 1019.2
20170325162429 69 225 4.0 8.0 0.00 0.00 0.00 62 1019.3
20170325161429 68 164 0.0 7.0 0.00 0.00 0.00 64 1019.6
20170325155429 67 161 4.0 10.0 0.00 0.00 0.00 63 1019.7
20170325154430 66 51 1.0 3.0 0.00 0.00 0.00 66 1019.7
20170325153429 66 51 2.0 3.0 0.00 0.00 0.00 68 1019.7
20170325152430 65 48 2.0 6.0 0.00 0.00 0.00 68 1019.9
20170325151429 64 49 2.0 3.0 0.00 0.00 0.00 69 1020.0
20170325150430 63 49 3.0 6.0 0.00 0.00 0.00 71 1020.3
20170325144429 61 48 2.0 6.0 0.00 0.00 0.00 73 1020.5
20170325142430 60 48 3.0 6.0 0.00 0.00 0.00 74 1020.7
20170325135430 57 48 4.0 6.0 0.00 0.00 0.00 77 1020.5
20170325134430 56 48 0.0 0.0 0.00 0.00 0.00 77 1020.4
20170325133430 54 48 0.0 0.0 0.00 0.00 0.00 78 1020.6
20170325132430 53 48 0.0 0.0 0.00 0.00 0.00 77 1020.5
20170325131430 52 48 0.0 0.0 0.00 0.00 0.00 77 1021.0
20170325130430 51 48 0.0 0.0 0.00 0.00 0.00 77 1021.0
20170325125430 51 48 0.0 0.0 0.00 0.00 0.00 77 1020.9
20170325124430 50 48 0.0 0.0 0.00 0.00 0.00 77 1020.9
20170325123430 50 48 0.0 0.0 0.00 0.00 0.00 76 1020.8
20170325121430 49 48 0.0 0.0 0.00 0.00 0.00 76 1020.8
20170325120430 49 49 1.0 2.0 0.00 0.00 0.00 76 1020.6
20170325115430 49 49 1.0 3.0 0.00 0.00 0.00 77 1020.6
20170325113431 50 48 2.0 3.0 0.00 0.00 0.00 76 1020.5
20170325112430 50 48 0.0 0.0 0.00 0.00 0.00 73 1020.6
20170325111431 50 48 0.0 2.0 0.00 0.00 0.00 73 1020.6
20170325110431 51 48 0.0 2.0 0.00 0.00 0.00 73 1020.5
20170325105430 51 48 0.0 1.0 0.00 0.00 0.00 73 1020.1
20170325103430 51 48 0.0 0.0 0.00 0.00 0.00 73 1020.0
20170325102431 51 48 0.0 2.0 0.00 0.00 0.00 73 1019.9
20170325101431 52 48 0.0 0.0 0.00 0.00 0.00 72 1019.8
20170325100431 52 48 0.0 3.0 0.00 0.00 0.00 71 1019.6
20170325095431 53 48 0.0 0.0 0.00 0.00 0.00 71 1019.6
20170325094431 53 48 0.0 0.0 0.00 0.00 0.00 71 1019.6
20170325093431 54 48 0.0 0.0 0.00 0.00 0.00 70 1019.5
20170325092431 54 48 0.0 3.0 0.00 0.00 0.00 70 1019.4
20170325090431 54 48 0.0 3.0 0.00 0.00 0.00 70 1018.9
20170325085431 54 48 0.0 5.0 0.00 0.00 0.00 70 1019.0
20170325084431 54 48 1.0 3.0 0.00 0.00 0.00 70 1019.1
20170325083431 54 48 0.0 5.0 0.00 0.00 0.00 70 1019.2
20170325082431 54 42 1.0 3.0 0.00 0.00 0.00 70 1019.1
20170325081431 55 40 2.0 5.0 0.00 0.00 0.00 69 1019.1
20170325080431 55 15 1.0 3.0 0.00 0.00 0.00 68 1019.5
20170325075431 55 15 0.0 6.0 0.00 0.00 0.00 68 1019.6
20170325074432 56 14 1.0 7.0 0.00 0.00 0.00 69 1019.5
20170325073431 56 11 3.0 7.0 0.00 0.00 0.00 68 1019.4
20170325072431 56 349 3.0 9.0 0.00 0.00 0.00 68 1019.6